Flag for Micronesia Weather past 2 weeks in Colonia, Yap, Micronesia

Now
80 °F

Partly cloudy.


Feels Like: 85 °F
Forecast: 80 / 88 °F
Wind: No wind

Location: Yap Island

Current Time: Jun 4, 2015 at 6:07:23 AM

Latest Report: Jun 4, 2015 at 4:58 AM


Visibility: 12 mi

Pressure: 29.80 "Hg

Humidity: 94%

Dew point: 78 °F

Location of ColoniaLocation

Historic Weather in Colonia — Graph

°F

Colonia temperature yesterday

Maximum temperature yesterday: 93 °F (at 11:52 AM)
Minimum temperature yesterday: 77 °F (at 2:50 PM)
Average temperature yesterday: 82 °F

Past Weeks' High & Low Weather Summary

 TemperatureHumidityPressure
High94 °F (May 29, 11:55 AM)97% (May 24, 6:52 AM)29.93 "Hg (May 24, 6:52 AM)
Low74 °F (May 24, 2:50 AM)57% (May 30, 11:52 AM)29.75 "Hg (Jun 3, 3:56 PM)
Average82 °F83%29.85 "Hg
* Reported May 20 4:52 AM — Jun 4 4:58 AM, Colonia, Weather by CustomWeather, © 2015

Note: Actual official high and low records may vary slightly from our data, if they occured in-between our weather recording intervals... More about our weather records

Advertising

Colonia weather history for previous 24 hours

 ConditionsComfort  
Time TempWeatherWind HumidityBarometerVisibility
4:58 AM
Thu, Jun 4
80 °FPartly cloudy.No wind94%29.80 "Hg12 mi
3:53 AM80 °FPartly cloudy.No wind93%29.80 "Hg12 mi
2:53 AM79 °FPartly cloudy.No wind95%29.80 "Hg12 mi
1:51 AM80 °FPartly cloudy.No wind95%29.81 "Hg12 mi
12:51 AM79 °FPassing clouds.9 mph96%29.83 "Hg12 mi
11:52 PM
Wed, Jun 3
79 °FPassing clouds.3 mph96%29.85 "Hg12 mi
10:50 PM79 °FPassing clouds.3 mph96%29.85 "Hg12 mi
9:51 PM79 °FPassing clouds.3 mph96%29.85 "Hg12 mi
8:50 PM78 °FPassing clouds.3 mph96%29.83 "Hg12 mi
7:52 PM79 °FPartly sunny.5 mph96%29.81 "Hg12 mi
6:55 PM79 °FSprinkles. Cloudy.5 mph96%29.78 "Hg10 mi
5:53 PM83 °FSprinkles. Cloudy.14 mph85%29.78 "Hg9 mi
4:53 PM83 °FBroken clouds.5 mph90%29.75 "Hg12 mi
3:56 PM81 °FBroken clouds.5 mph93%29.75 "Hg12 mi
2:50 PM77 °FSprinkles. Mostly cloudy.3 mph92%29.78 "Hg10 mi
1:52 PM84 °FBroken clouds.7 mph76%29.80 "Hg12 mi
12:54 PM89 °FBroken clouds.6 mph67%29.80 "Hg12 mi
11:52 AM93 °FScattered clouds.10 mph63%29.81 "Hg12 mi
10:51 AM92 °FScattered clouds.8 mph64%29.82 "Hg12 mi
9:54 AM90 °FScattered clouds.6 mph68%29.83 "Hg12 mi
8:50 AM87 °FBroken clouds.6 mph75%29.83 "Hg12 mi
7:52 AM86 °FBroken clouds.6 mph78%29.82 "Hg12 mi
6:50 AM80 °FPartly cloudy.8 mph90%29.81 "Hg12 mi
Weather by CustomWeather, © 2015

See weather overviewHow to use our weather pages